Preview of NWS' New Version of Forecast
This preview is not operational and should not be used for support decisions.

Regional Weather Roundup (RWR)

Issued by National Weather Service (NWS)

                            
000
ASPQ40 PGUM 232310
RWRPQ 
WEATHER ROUNDUP FOR THE MARIANAS AND MICRONESIA
NATIONAL WEATHER SERVICE TIYAN GU
900 AM CHST MON JUN 24 2019

GUZ001>004-240000-
MARIANA ISLANDS-
  
CITY           SKY/WX    TMP DP  RH WIND       PRES   REMARKS
GUAM AIRPORT   SUNNY     86  75  70 E13       29.94S HX  95           
ANDERSEN AFB   PTSUNNY   84  75  74 NE12      29.95S HX  92           
ROTA AIRPORT   PTSUNNY   84  73  70 E18       29.93F HX  91           
TINIAN AP      PTSUNNY   88  77  70 E12       29.92F HX 100           
SAIPAN AP      LGT RAIN  82  77  83 E12       29.94S HX  91           

$$

PMZ161-240000-
REPUBLIC OF PALAU-
  
CITY           SKY/WX    TMP DP  RH WIND       PRES   REMARKS
KOROR AP       PTSUNNY   84  77  79 SW7       29.86R HX  94           
KOROR WSO      NOT AVBL                                               

$$

PMZ171>174-240000-
FEDERATED STATES OF MICRONESIA-
  
CITY           SKY/WX    TMP DP  RH WIND       PRES   REMARKS
YAP AIRPORT    MOSUNNY   88  79  74 CALM      29.86S HX 102           
CHUUK AP       PTSUNNY   88  81  79 SE8       29.85S HX 105           
POHNPEI AP     CLOUDY    81  77  89 SE6       29.88F                  
POHNPEI WSO    CLOUDY    82  79  89 E5        29.92S HX  93           
KOSRAE AP      PTSUNNY   84  79  84 E6        29.85F HX  96           

$$

PMZ181-240000-
REPUBLIC OF THE MARSHALL ISLANDS-
  
CITY           SKY/WX    TMP DP  RH WIND       PRES   REMARKS
KWAJALEIN AP   PTSUNNY  N/A N/A N/A E21       29.88F                  
MAJURO AP      PTSUNNY   84  77  79 SE10      29.89R HX  94           
MAJURO WSO     PTSUNNY   86  79  79 SE6       29.87F HX  99           

$$